Torna al catalogo

NEIMENGGU 1

AttivoScienzaSSO
NORAD 49003·PAYLOAD·🇨🇳 China
Questo nome del satellite non è ancora stato confermato da fonti ufficiali.

Lanciato Jul 3, 2021 da Taiyuan Satellite Launch Center

Loading…

Prossimi Passaggi (prossime 24 ore)

TLE

AggiornatoSource: Space-Track

Epoca: Sep 14, 2026, 15:22 UTC

1 49003U 21061A   26257.64030977  .00001238  00000-0  79919-4 0  9997
2 49003  97.5143 332.1504 0008258 108.0953 252.1177 15.10047429286840

Traccia NEIMENGGU 1 in tempo reale con AllMySat

Download on the App Store